RH
45 50 55 58 60 59 57 52 46 43 41 38 41 49 57 64 68 70 70 67 61 55 50 45 41 38 37 38 38 38 37 37 38 38 41 44 46 47 49 50 50 51
58 62 64 65 61 54 47 41 37 35 32 32 45 65 77 80 81 79 77 75 71 64 55 48 43 40 38 37 38 40 39 40 40 41 44 45 45 47 48 49 49 50
64 65 66 62 51 42 39 39 39 40 42 52 67 78 79 77 76 74 74 75 75 72 65 56 47 41 38 38 40 41 42 43 44 43 45 46 45 46 47 47 48 49
49 52 54 49 43 41 43 45 47 53 61 70 74 72 68 67 67 65 66 68 70 72 71 66 57 48 42 40 41 43 43 44 45 44 46 47 46 47 47 47 49 49
35 42 46 45 46 46 46 50 59 68 71 70 66 62 59 56 55 55 54 56 57 61 66 69 67 62 56 48 43 43 45 46 46 46 48 49 47 48 48 48 50 50
35 43 46 48 49 48 53 63 71 72 66 62 58 54 52 51 53 53 52 54 54 54 58 64 67 67 65 61 55 51 49 50 50 49 49 49 48 47 48 49 50 50
41 48 49 50 52 58 67 69 65 59 55 55 56 55 59 61 62 61 60 62 64 64 63 61 64 67 66 66 66 63 59 55 53 52 50 49 49 49 49 49 50 50
47 51 51 55 62 67 65 55 50 53 56 59 62 64 68 68 68 68 67 69 73 76 76 71 68 70 69 67 67 66 65 61 55 52 51 51 52 51 50 49 49 51
51 53 56 62 66 63 54 47 52 61 64 67 69 70 72 72 71 71 72 75 79 81 83 82 79 77 75 74 72 69 67 66 63 59 57 57 56 53 50 49 51 52
53 57 62 65 64 60 53 52 58 65 68 70 72 74 75 75 75 77 78 81 83 85 86 87 87 84 80 78 77 75 73 72 72 71 66 62 59 56 53 51 52 54
56 60 65 66 66 63 59 59 63 68 71 73 75 77 78 79 80 82 83 85 86 88 88 87 87 86 86 85 81 80 79 76 75 77 75 70 65 61 58 55 54 56
59 64 68 70 69 65 63 66 69 71 74 76 78 80 81 83 84 84 86 87 87 87 86 87 88 88 90 91 88 87 86 82 79 80 80 77 73 68 63 60 59 59
63 69 73 73 70 68 68 72 74 75 79 80 82 84 85 86 87 87 87 87 88 88 88 90 92 93 92 92 92 91 89 87 85 86 83 79 79 75 69 66 64 62
70 76 77 73 71 72 75 77 78 80 83 84 85 87 87 87 88 88 88 89 91 92 92 92 92 92 91 90 90 89 89 89 88 90 89 83 82 81 76 73 71 68
77 79 77 75 76 78 80 81 83 84 86 87 88 88 88 88 88 90 91 92 92 91 90 89 88 88 88 89 92 92 94 94 91 90 90 86 84 84 80 77 75 72
80 79 78 80 82 83 84 85 86 88 89 89 89 90 89 89 89 90 92 91 91 89 88 88 89 88 90 94 99 100 100 100 97 94 92 90 88 87 82 79 77 76
79 80 82 84 85 87 88 89 88 90 91 90 91 91 90 90 90 90 90 89 90 90 89 90 89 89 94 99 102 102 100 98 98 97 95 92 92 92 89 84 81 78
80 83 86 87 88 89 89 89 90 91 92 92 92 91 90 91 91 90 90 89 90 90 90 90 89 91 98 102 102 101 100 98 96 96 95 92 90 90 91 90 86 82
84 86 89 89 90 91 90 91 92 92 94 93 92 92 91 91 91 90 89 89 89 90 90 90 89 93 100 103 101 100 99 97 96 95 94 92 89 87 89 92 90 86
87 90 92 92 91 90 91 93 93 93 94 92 91 92 91 91 91 89 89 89 89 89 90 90 89 94 101 101 98 97 96 95 97 96 94 93 92 91 93 94 92 90
90 93 93 93 92 92 93 94 94 95 93 91 92 92 91 91 90 90 90 88 88 88 89 89 90 96 101 96 90 92 92 93 95 94 92 92 91 91 94 97 95 92
93 95 94 93 93 94 95 95 95 95 93 92 93 92 91 91 90 90 90 89 87 88 90 90 89 94 99 93 89 90 89 89 91 90 91 94 91 90 93 95 96 94
95 95 94 95 95 96 97 96 95 95 93 93 93 93 91 91 90 89 89 89 88 87 89 90 89 92 96 93 89 89 85 86 90 91 93 95 93 92 94 96 97 95
95 95 95 96 97 97 97 96 95 94 93 92 92 93 92 90 89 90 90 88 87 86 87 90 90 90 92 91 89 85 83 86 92 95 96 95 94 96 97 98 100 97
95 96 97 97 97 96 96 96 95 94 92 91 91 91 91 90 89 90 90 87 85 84 85 88 88 85 86 89 87 81 81 88 94 96 95 94 96 100 100 99 102 100
95 96 97 97 97 96 95 94 94 93 91 90 91 90 90 90 89 90 90 87 84 84 83 84 84 82 85 89 85 80 82 88 93 95 95 95 98 100 100 100 101 101
Wind_Speed
31 30 30 30 28 27 28 31 33 34 34 33 32 32 32 31 31 31 32 34 36 37 39 41 41 39 35 33 33 34 36 36 37 36 36 36 36 36 36 36 35 35
29 30 30 28 27 28 33 36 36 36 35 32 29 29 29 30 30 31 32 34 35 35 36 38 41 41 39 37 37 37 38 38 38 37 36 36 36 36 36 36 36 36
29 30 28 28 30 34 36 36 34 33 31 28 27 28 30 31 32 33 34 34 36 36 35 35 38 41 41 40 39 38 37 37 37 37 36 36 36 35 36 36 36 36
31 30 29 31 33 34 34 33 31 29 27 27 29 31 32 33 35 36 36 36 37 37 36 35 34 35 37 37 36 35 35 36 37 36 35 36 36 35 36 35 35 35
33 31 30 30 31 32 31 29 28 27 28 30 33 34 36 37 38 38 39 39 38 39 38 37 35 34 34 34 34 34 34 35 36 35 34 35 36 35 35 35 34 35
35 31 29 29 31 30 27 26 28 31 34 36 38 39 39 40 39 39 39 40 39 39 39 37 37 36 35 34 33 34 34 34 35 35 34 35 36 36 35 35 34 35
34 30 29 30 28 25 24 29 35 38 39 40 41 40 39 39 40 40 41 40 40 39 38 38 37 37 36 36 35 35 35 36 36 35 34 34 35 36 36 35 35 35
32 29 30 28 24 23 28 36 40 40 40 41 41 40 39 39 41 43 43 41 40 39 38 37 37 36 36 37 38 39 37 36 35 34 33 34 34 35 36 35 34 35
30 30 28 23 23 27 35 41 42 40 39 39 39 40 40 41 43 43 42 41 40 40 39 37 37 36 36 37 39 40 40 38 36 35 34 34 35 35 36 35 33 34
30 29 23 23 29 35 41 43 41 39 38 37 37 39 41 43 43 42 41 41 40 40 39 38 37 38 38 39 38 39 40 41 40 39 37 36 36 36 36 35 34 34
30 24 22 30 39 43 46 44 40 38 38 37 38 41 43 44 43 41 40 39 39 39 39 39 41 42 41 40 39 38 39 41 42 41 40 38 38 38 37 36 35 35
26 22 28 38 42 44 45 42 39 39 38 38 40 41 43 43 42 41 40 39 40 41 42 43 42 41 39 38 39 39 39 41 43 43 42 41 39 39 39 38 37 37
23 26 35 39 41 44 44 41 41 40 39 40 41 41 42 42 42 43 42 42 42 42 42 40 37 36 35 36 37 39 40 41 42 44 44 43 41 40 39 39 38 38
24 32 37 39 42 44 42 42 42 40 40 42 42 41 42 42 42 44 44 43 41 38 36 35 35 35 36 36 37 39 40 40 40 41 43 44 43 41 39 38 38 39
28 35 39 41 43 43 42 42 42 41 42 42 42 42 42 42 43 42 42 41 39 37 38 38 39 39 38 37 37 39 40 40 40 40 42 43 42 40 39 39 38 38
32 38 41 42 43 41 41 42 42 43 44 43 43 42 41 42 43 41 40 40 41 43 43 42 41 40 38 38 38 38 39 41 40 40 41 40 39 39 39 39 38 38
37 41 41 41 42 41 41 42 43 44 43 43 43 43 42 43 42 41 42 41 41 43 44 42 41 40 39 40 40 39 39 40 40 39 37 37 37 37 36 36 36 37
39 41 41 42 43 43 43 44 45 44 43 43 43 44 44 43 41 42 43 42 42 42 43 43 43 42 42 42 41 39 38 39 39 38 37 36 37 37 35 33 33 34
40 41 42 43 44 44 45 45 45 44 43 43 44 45 44 43 42 43 43 43 42 42 44 45 45 44 43 42 42 41 39 39 38 37 37 38 38 38 36 34 33 32
41 42 43 44 45 45 46 45 44 43 43 44 45 44 44 43 43 44 44 44 43 43 45 46 46 44 43 43 45 42 40 40 39 37 38 38 37 36 34 33 33 32
42 43 44 45 46 46 45 44 43 43 44 45 44 43 42 42 43 43 44 45 45 45 46 47 46 44 43 45 46 42 40 40 37 34 34 33 32 31 29 30 31 32
42 43 45 45 45 45 44 44 43 43 44 44 43 42 42 42 42 42 43 44 47 46 45 45 45 44 44 45 44 42 40 37 34 32 31 30 30 29 28 28 30 32
42 43 44 44 44 43 43 43 44 44 45 43 41 42 43 43 43 43 43 44 45 45 44 44 44 43 43 44 44 41 38 35 32 31 30 29 29 28 26 28 30 32
41 41 41 41 42 42 42 43 44 45 44 42 41 42 43 44 45 44 44 44 44 45 44 42 42 42 42 43 42 39 36 33 31 29 28 27 25 23 24 26 29 32
41 40 39 40 41 42 42 43 43 43 44 44 43 42 42 44 45 44 44 45 45 45 43 42 42 42 42 41 39 37 35 32 29 26 24 22 20 19 21 24 26 28
40 39 39 39 40 42 43 42 41 41 43 44 44 43 43 44 44 43 43 44 44 43 43 42 42 41 40 40 37 35 35 32 27 23 20 19 18 18 19 20 23 25
Wind_Direction
344 342 340 338 338 338 340 338 335 331 327 325 324 323 324 326 327 328 326 322 314 303 293 282 272 266 262 261 260 258 256 255 253 252 251 249 250 251 252 253 251 250
345 342 339 338 340 338 335 333 330 328 326 326 326 329 332 333 333 333 332 330 325 317 305 290 277 267 262 261 260 257 254 251 250 249 247 247 248 249 250 252 252 250
345 341 339 338 336 333 331 331 332 332 332 333 335 337 337 335 333 332 331 330 329 327 320 306 289 274 265 262 260 255 252 251 251 250 248 247 248 248 249 251 251 250
342 337 334 332 331 331 332 334 337 340 340 339 340 339 337 335 333 331 329 327 326 325 323 319 307 290 277 269 262 257 255 254 254 252 249 249 250 249 249 250 250 249
337 332 331 331 332 332 334 339 342 344 342 339 337 335 333 331 329 327 326 324 322 319 317 316 313 306 296 284 271 264 261 258 255 252 249 250 251 250 250 249 248 248
335 332 332 333 333 335 340 344 344 340 337 334 331 329 328 327 326 325 323 321 318 315 313 311 309 307 303 296 283 272 266 262 257 253 248 249 251 251 250 248 247 247
334 333 333 333 336 342 345 343 338 334 331 329 327 327 327 326 325 324 322 319 317 314 312 309 306 303 301 298 293 283 273 265 260 254 249 250 251 251 249 247 246 246
333 332 332 334 340 345 342 338 334 331 329 328 326 326 326 325 323 322 320 318 315 313 312 310 306 303 300 297 294 290 282 270 261 254 252 253 252 251 249 247 246 246
330 328 329 336 343 342 338 336 333 330 329 328 325 324 323 322 321 319 318 315 313 311 310 309 306 304 301 298 294 290 285 277 268 260 256 255 252 251 250 248 246 245
327 326 330 338 340 338 336 334 331 328 327 326 323 321 320 319 318 317 315 314 312 310 309 307 306 303 300 297 293 289 285 280 274 266 259 255 252 250 250 248 246 246
326 327 334 337 337 336 335 332 329 326 324 323 321 319 318 317 316 316 314 313 310 309 307 305 304 302 299 295 292 288 285 281 276 270 262 256 253 251 250 248 247 247
326 331 336 336 336 335 332 329 327 324 322 321 319 318 317 316 315 314 313 311 308 307 306 304 302 300 296 293 291 288 285 281 277 272 267 260 255 251 250 249 247 248
327 334 336 335 333 331 328 326 325 323 321 320 319 318 316 315 315 314 312 310 308 307 306 304 302 299 296 293 291 289 286 282 278 274 269 264 258 253 250 249 248 248
330 334 333 331 328 327 326 325 324 322 320 320 319 317 316 316 315 314 313 311 309 306 305 304 301 299 297 294 291 289 285 280 277 274 271 267 261 254 250 248 248 248
330 331 329 327 326 326 325 323 323 321 320 319 319 318 317 317 316 314 312 311 309 306 304 303 300 297 295 293 290 287 283 277 274 272 270 267 260 253 250 249 247 247
328 327 326 326 325 325 324 323 322 321 321 320 319 319 318 317 316 314 311 309 307 306 304 303 300 297 295 292 289 287 283 279 275 270 266 263 258 252 248 246 245 245
326 325 325 325 325 324 323 323 322 321 321 320 320 319 318 317 315 313 311 309 307 306 304 302 300 298 296 294 291 288 285 282 279 274 269 264 261 255 249 243 242 242
325 325 325 325 325 324 323 323 323 321 321 321 320 319 318 317 315 313 311 310 308 305 303 301 300 298 297 296 293 289 286 282 279 276 272 267 263 260 253 246 241 240
326 326 325 325 325 324 323 323 323 322 321 321 320 319 317 316 314 313 311 310 308 305 303 302 300 300 299 296 293 291 287 283 279 277 275 271 266 261 255 248 242 237
328 327 326 325 325 325 324 323 323 322 321 321 319 318 316 315 314 313 311 310 308 306 304 302 301 301 299 296 294 292 288 285 283 279 276 274 270 263 253 244 238 232
328 327 326 325 325 324 323 322 322 321 320 320 318 316 314 313 312 311 310 309 309 307 304 303 302 301 300 298 297 295 292 291 289 286 283 280 278 272 258 244 236 227
328 327 326 325 324 323 322 321 320 320 319 319 317 314 313 312 311 310 309 308 308 307 304 302 303 303 302 301 300 298 296 295 294 292 289 283 280 276 263 247 235 224
327 326 324 323 322 321 320 320 320 319 318 318 316 314 313 313 311 310 309 308 307 306 304 302 302 303 303 302 302 300 298 297 294 290 284 279 276 271 258 242 229 220
326 325 323 321 321 320 319 319 319 318 318 317 316 313 312 312 311 310 308 308 307 305 303 301 301 302 303 302 302 302 299 297 294 287 281 281 278 264 247 233 222 216
325 324 323 322 320 319 319 319 319 318 317 317 316 313 311 311 311 309 307 308 307 305 304 302 300 302 303 302 301 302 300 299 296 288 285 286 274 250 232 223 215 210
325 324 323 322 321 320 320 320 319 318 317 317 316 314 312 311 310 308 306 306 306 305 304 303 301 301 301 300 301 302 302 301 299 294 297 297 271 235 217 213 209 206